Hourly Data Report for March 04, 2011

HALIFAX STANFIELD INT'L A
NOVA SCOTIA

44°52'48.060" N
63°30'00.050" W
145.40 m
8202250
71395
YHZ

Download Data

Hourly Data (March 2011)
Hourly Data Report for March 4, 2011
TIME
LST
Temp Definition
°C
Dew Point Definition
°C
Rel Hum Definition
%
Precip. Amount Definition
mm

Wind Dir Definition
10's deg

Wind Spd Definition
km/h
Visibility Definition
km
Stn Press Definition
kPa
Hmdx Definition


Wind Chill Definition


Weather Definition


00:00 -13.5 -20.2 57   32 13 24.1 101.50   -20 Clear
01:00 -14.2 -21.7 53   33 17 24.1 101.58   -22 Clear
02:00 -14.8 -22.0 54   32 17 24.1 101.68   -23 Clear
03:00 -15.0 -22.3 54   32 20 24.1 101.69   -24 Clear
04:00 -15.3 -22.4 55   32 15 24.1 101.77   -23 Clear
05:00 -15.7 -22.2 57   32 15 24.1 101.85   -24 Clear
06:00 -15.8 -22.2 58   32 19 24.1 101.94   -25 Clear
07:00 -15.8 -22.0 59   31 20 24.1 102.01   -25 Clear
08:00 -15.3 -21.5 59   33 24 24.1 102.09   -25 Clear
09:00 -13.9 -20.2 59   33 17 24.1 102.20   -22 Clear
10:00 -12.7 -20.1 54   34 17 24.1 102.25   -21 Clear
11:00 -11.3 -19.7 50   32 17 24.1 102.27   -19 Mainly Clear
12:00 -9.6 -19.9 43   34 13 24.1 102.29   -16 Mainly Clear
13:00 -8.2 -19.6 39   33 17 24.1 102.25   -15 Clear
14:00 -7.0 -19.6 36   35 17 24.1 102.24   -13 Clear
15:00 -5.8 -19.4 33   32 9 24.1 102.25   -10 Clear
16:00 -5.4 -19.2 33   30 9 24.1 102.26   -9 Clear
17:00 -5.8 -20.8 30   33 9 24.1 102.26   -10 Clear
18:00 -7.2 -19.4 37   30 9 24.1 102.28   -12 Mainly Clear
19:00 -8.3 -18.8 42   2 9 24.1 102.31   -13 Mostly Cloudy
20:00 -8.7 -20.7 37     0 24.1 102.33     Clear
21:00 -9.1 -21.2 37   15 7 24.1 102.35   -13 Clear
22:00 -10.1 -20.0 44   15 9 24.1 102.38   -15 Clear
23:00 -11.2 -19.0 53   16 13 24.1 102.36   -18 Clear

Notes on Data Quality.

Legend

  • E = Estimated
  • M = Missing
  • NA = Not Available*
  • [empty] = Indicates an unobserved value
Date modified: